Погода в Дуброво

Россия / Пермский край     57°42′19″N   54°59′48″E
темп.,
°C
ветер,
м/с
пор.,
м/с
влажн.,
%
обл.,
%
осадки,
мм/ч
давл.,
гПа
погр.,
м
16 мая, вс
вс1623:00+21юз412645 0.3 1017249
02:00+20юз51462100 0.0 1017336
05:00+17юз31070100 0.0 1017202
08:00+21юз4105675 0.0 1017324
11:00+26юз583910 0.0 1017717
14:00+29юз6102966 0.0 10172317
17:00+30ююз6102952 0.0 10162993
20:00+26юз61341100 0.0 1015669
17 мая, пн
пн1723:00+21юз4135291 0.0 1015351
02:00+18юз256386 0.0 101587
05:00+16зюз24715 0.0 101656
08:00+20зюз356299 0.0 1017248
11:00+24зюз594869 0.0 10171220
14:00+27зюз6113711 0.0 10162483
17:00+27зсз6103699 0.0 10152691
20:00+23зсз4848100 0.1 1016473
18 мая, вт
вт1823:00+18зсз2762100 0.1 1017153
02:00+16зсз267277 0.0 1017112
05:00+14сз228330 0.0 101815
08:00+17с36715 0.0 1019508
11:00+20ссз4552100 0.0 10201237
14:00+22с454432 0.0 10201543
17:00+22св453935 0.0 10211560
20:00+19всв47496 0.0 1022384
19 мая, ср
ср1923:00+13всв26665 0.0 102399
02:00+12вюв267832 0.0 1024123
05:00+9в2681100 0.0 1025137
08:00+13юв466576 0.0 1026402
11:00+18вюв34445 0.0 1025783
14:00+22вюв333327 0.0 10231249
17:00+23юв333119 0.0 10231397
20:00+20юв24487 0.0 102296
20 мая, чт
чт2023:00+14юв226132 0.0 102211
02:00+13юв11645 0.0 102210
05:00+11ююв226961 0.0 102310
08:00+17ююв235379 0.0 1022195
11:00+22ю333956 0.0 1022755
14:00+25ююз343454 0.0 10211713
17:00+26ююз453312 0.0 10201917
20:00+22ю374821 0.0 1020291